User: anonymous   Login
Location: Unspecified
(0.0000°N, 0.0000°E)
Time: 19:04:24
(UTC+00:00)
Language:

NOSS 3-1 (A) - Orbit

View from above orbital plane
View from above orbital plane
View from above satellite
View from above satellite

Ground track
Ground track

The orbit data is extracted from the following two-line orbital elements,

1 26905U 01040A   17109.98648942 0.00000010  00000-0  12255-4 0    08
2 26905  63.4120 182.2141 0365000 358.4924   1.5076 13.40748737    01
Epoch (UTC): 19 April 2017 23:40:32
Eccentricity: 0.0365000
inclination: 63.4120°
perigee height: 833 km
apogee height: 1379 km
right ascension of ascending node: 182.2141°
argument of perigee: 358.4924°
revolutions per day: 13.40748737
mean anomaly at epoch: 1.5076°
orbit number at epoch: 0

The dashed part of the orbit path shows where the satellite is in the earth's shadow,  

DLR